Theta_e
364 361 360 360 364 363 364 360 360 359 365 361 360 364 367 365 366 366 365 370 368 367 369 372 374 372 363 371 376 368 379 370 373 370 371 368 369 360 353 354 364 363
365 364 366 362 365 369 368 363 363 363 366 366 370 369 366 367 363 366 365 368 368 367 370 368 370 372 372 371 372 370 375 374 370 361 366 367 366 362 359 360 356 363
363 362 361 359 358 359 360 360 364 362 360 363 364 367 361 366 361 369 368 368 367 362 370 371 371 371 369 371 374 370 366 370 366 361 373 369 366 367 366 355 357 357
362 362 359 358 358 359 359 363 363 365 362 361 359 359 358 358 364 362 370 369 368 369 367 367 368 365 368 369 371 369 370 373 370 375 371 371 370 366 364 366 359 363
357 358 356 357 358 361 360 359 357 357 357 362 357 363 366 365 363 363 365 365 368 366 369 371 368 367 371 372 371 370 368 370 369 373 371 368 371 368 360 363 372 360
362 364 365 359 360 360 356 355 357 355 355 357 357 360 355 362 361 362 363 360 359 359 361 362 366 363 365 368 370 369 366 360 366 370 368 369 364 363 357 362 365 362
356 358 356 357 354 356 356 358 357 358 355 353 359 358 359 358 360 361 362 362 359 363 359 366 366 367 366 371 371 369 371 371 369 370 368 367 370 365 360 361 368 363
357 356 356 357 354 354 355 354 353 355 359 359 354 358 359 356 361 355 359 361 357 361 363 363 366 372 363 365 368 369 365 358 359 368 368 366 369 372 371 361 365 370
357 357 357 354 352 351 350 351 352 354 357 355 353 353 357 359 358 356 365 365 363 365 366 362 366 365 366 365 366 368 366 361 359 363 364 361 360 364 362 366 362 366
357 359 355 354 351 350 349 349 349 351 355 353 353 352 353 359 361 360 366 370 363 366 367 367 369 367 366 363 367 366 367 369 367 367 363 363 362 361 360 363 363 367
354 356 353 357 359 356 349 349 348 347 349 350 351 351 351 353 361 362 364 369 358 361 364 368 365 366 366 360 364 363 367 362 364 365 364 365 364 366 363 367 366 364
350 349 352 354 357 358 356 348 347 346 346 347 348 350 353 350 354 354 356 366 366 364 363 365 366 366 367 365 360 362 362 363 364 366 362 364 363 360 362 364 360 363
351 351 351 353 359 362 361 355 349 346 344 345 347 349 349 348 347 355 360 360 366 363 360 363 365 362 367 367 364 362 363 363 359 361 365 362 360 359 357 358 358 358
360 358 361 364 366 365 365 363 358 354 352 352 355 349 346 346 347 347 352 355 359 361 363 365 366 364 368 368 366 363 359 362 361 361 361 358 359 362 357 354 355 357
365 367 367 368 368 367 365 365 363 358 358 357 357 352 345 347 347 346 348 351 355 361 363 360 356 360 363 363 361 366 362 359 358 358 359 359 359 356 357 360 359 356
366 366 365 365 367 367 367 367 364 364 361 363 363 363 360 360 363 359 349 347 350 353 356 356 354 353 358 365 363 363 364 360 358 364 361 361 362 361 358 356 355 355
365 363 364 364 365 365 366 367 366 366 365 364 364 364 367 366 365 359 353 349 345 346 350 349 349 344 335 339 348 358 362 364 364 367 365 364 360 361 362 362 359 358
361 361 361 360 361 361 362 362 363 363 362 362 361 360 364 360 358 359 360 356 349 349 349 351 345 333 330 333 336 337 352 365 358 360 359 361 360 356 356 356 355 354
357 357 356 357 358 358 360 360 360 360 360 359 355 356 359 359 357 357 359 353 348 349 352 351 345 329 329 330 331 333 337 356 358 361 354 353 356 358 355 352 349 349
353 354 352 354 354 356 359 359 358 357 358 357 356 357 358 359 358 361 361 354 351 352 354 349 343 329 326 328 329 331 334 347 360 360 357 356 359 356 352 354 352 352
349 350 349 350 352 354 354 354 354 354 353 355 357 357 356 357 360 360 356 351 352 355 355 349 333 321 323 324 325 328 333 351 361 360 360 360 357 356 354 353 356 356
343 343 344 346 348 349 349 350 350 350 350 353 353 353 355 358 359 357 353 351 350 352 351 350 333 318 318 320 322 325 333 357 361 362 360 356 355 354 355 356 355 354
343 343 343 342 343 342 342 343 344 346 348 349 347 350 353 353 354 351 352 351 349 350 349 341 332 320 316 316 318 321 342 357 360 360 359 357 356 355 355 357 358 358
343 343 342 342 341 340 341 343 345 346 347 347 345 344 347 351 352 349 351 348 348 347 345 336 330 321 314 314 314 317 335 353 359 358 355 357 356 355 355 356 353 355
340 340 342 342 340 339 340 340 342 344 347 349 348 347 347 350 352 348 348 348 349 346 343 337 332 326 314 312 313 314 331 350 358 356 352 354 354 354 354 356 347 337
333 337 338 337 337 339 341 341 343 345 347 347 347 348 345 345 347 347 346 346 346 342 340 334 329 326 320 311 311 313 317 344 355 350 348 347 350 351 351 353 349 338
Wind_Speed
7 6 6 5 4 5 4 5 7 6 4 3 4 3 4 4 3 3 3 3 4 5 4 3 3 2 4 2 2 2 1 2 2 4 3 2 2 4 3 2 1 1
9 9 6 6 5 4 4 5 4 4 5 4 1 3 2 4 4 4 5 5 4 4 3 4 3 3 2 2 3 3 1 1 3 2 2 2 3 2 3 3 1 2
9 7 7 7 6 8 8 6 5 5 5 6 4 3 4 3 5 3 5 5 4 5 5 3 3 3 3 3 3 2 4 5 3 3 2 1 2 2 4 5 2 2
8 9 9 9 8 7 6 4 4 4 3 5 6 5 5 4 3 4 3 4 3 2 4 4 3 3 3 3 3 3 1 2 2 1 1 2 2 2 3 2 3 1
10 8 8 8 7 6 5 4 5 6 6 4 7 6 4 3 4 4 4 4 5 5 4 4 3 3 2 2 3 3 3 3 2 1 2 2 2 3 4 3 1 1
7 6 5 6 8 7 6 7 7 5 6 8 6 5 5 6 4 6 6 6 5 6 6 5 4 4 5 4 3 3 3 2 2 2 3 2 3 3 3 5 3 2
10 8 9 7 7 8 7 6 5 7 8 6 6 6 6 7 6 5 6 4 6 4 5 3 4 4 4 2 3 4 3 3 2 3 3 3 3 3 4 4 4 2
8 9 9 7 8 7 7 8 8 5 5 4 6 5 5 6 4 7 4 5 5 4 4 5 2 3 5 3 4 3 4 5 6 5 4 4 2 2 1 3 2 2
7 7 7 9 10 8 9 8 7 7 5 5 6 6 6 4 6 6 3 4 4 4 5 5 6 5 3 5 4 3 4 5 2 3 4 4 4 3 3 3 3 3
6 6 8 8 9 8 9 9 7 7 5 6 7 6 5 4 3 4 4 3 4 3 3 3 4 4 4 4 4 4 4 3 4 3 4 4 4 3 4 3 3 2
8 6 8 7 6 5 8 8 8 8 7 7 7 7 7 5 4 3 4 3 5 5 4 3 4 5 5 6 4 4 3 5 4 4 5 5 4 3 5 3 2 3
8 9 8 7 6 4 4 8 8 8 8 8 8 7 6 6 6 7 5 4 4 5 5 5 4 5 4 5 5 4 6 5 3 3 4 4 3 5 4 4 4 3
7 7 7 6 4 4 4 5 7 8 8 8 7 6 7 7 7 6 4 5 5 6 7 5 4 5 4 4 5 6 4 2 5 4 3 4 5 6 7 6 6 5
5 5 5 4 3 4 3 3 5 7 7 5 3 5 7 8 8 6 7 6 7 7 5 5 4 5 4 4 5 5 5 4 1 4 2 5 7 6 6 6 5 4
4 3 3 3 3 4 4 4 4 5 6 6 5 6 7 7 7 9 5 8 6 5 5 6 7 6 6 5 6 5 4 5 7 7 3 4 4 7 6 6 4 5
4 3 2 3 2 2 2 2 3 4 4 4 6 7 6 4 4 4 8 5 6 7 8 6 7 6 6 12 8 5 4 4 4 1 1 3 4 6 7 6 6 6
4 3 3 3 3 2 2 1 0 1 2 3 4 4 4 6 6 6 6 8 8 5 6 5 6 8 13 10 2 6 6 4 2 2 3 2 1 3 6 6 6 5
3 3 3 3 3 3 3 2 2 2 1 2 2 3 3 5 7 6 4 6 7 10 11 8 5 11 15 13 11 12 10 2 4 3 3 3 3 5 7 6 8 12
4 3 3 2 2 3 3 2 3 3 3 3 4 3 2 2 4 7 5 7 7 6 4 5 6 10 11 11 11 11 10 8 3 3 3 5 3 2 5 7 4 1
3 4 5 4 4 4 3 3 4 4 4 4 5 4 3 4 5 5 2 3 3 4 4 5 5 7 8 9 9 9 9 6 3 4 3 4 4 7 5 4 5 2
5 2 2 4 6 5 3 2 2 3 3 4 4 3 2 3 3 1 4 4 3 3 4 6 5 9 8 8 8 8 9 4 2 2 3 4 5 6 6 4 3 0
5 5 6 6 4 2 2 1 2 1 4 4 4 3 2 1 3 4 5 4 3 3 2 4 5 9 9 8 8 8 7 3 2 2 4 4 4 5 5 5 3 2
5 5 5 5 5 6 5 4 3 3 1 3 4 3 5 5 4 4 3 4 4 4 4 5 5 7 9 8 8 10 6 2 3 2 3 3 3 4 4 4 5 2
4 4 5 5 5 5 4 4 3 4 3 2 2 2 3 6 5 4 4 3 4 5 5 5 4 6 10 9 9 9 6 3 2 2 1 2 2 3 2 2 5 10
5 6 5 5 5 5 4 4 4 4 2 1 1 2 4 4 4 8 7 5 5 6 10 8 5 6 10 9 10 10 6 3 2 2 2 3 3 2 1 1 5 7
7 5 5 5 5 4 4 4 3 2 1 2 3 4 4 5 3 3 9 8 8 7 6 7 6 5 6 8 10 12 11 4 3 4 4 2 2 3 3 2 5 4
Wind_Direction
167 167 176 191 203 204 193 176 180 182 184 185 194 164 137 198 200 182 174 176 207 159 198 177 214 195 210 192 182 180 138 234 175 208 220 260 253 235 293 324 41 290
177 169 178 179 195 213 185 210 175 166 169 154 107 126 210 174 203 167 169 199 211 153 196 210 192 221 237 182 187 197 175 70 261 215 254 196 230 336 293 284 201 180
176 176 179 184 203 195 198 198 175 166 198 160 154 160 201 215 166 189 163 190 232 168 186 202 210 194 211 154 216 196 201 205 230 234 172 261 301 201 237 213 199 217
177 179 188 192 192 197 209 194 187 187 192 155 157 192 209 164 183 178 177 184 204 146 214 211 199 199 208 205 195 234 220 216 227 1 282 237 232 267 267 268 235 181
189 187 191 189 190 194 189 200 217 194 191 204 180 185 153 149 158 184 212 175 200 175 197 223 190 200 230 259 206 227 216 203 226 213 241 246 255 243 252 241 12 281
189 185 202 204 171 179 183 198 218 206 227 181 203 170 189 170 175 219 181 196 193 201 191 206 208 202 198 217 224 237 240 237 164 212 235 245 267 249 262 12 316 238
193 192 200 206 211 177 194 205 216 203 212 208 177 184 192 191 192 198 205 189 210 181 184 200 222 219 200 168 219 219 202 239 170 217 214 235 231 269 282 203 206 229
193 189 200 198 207 204 203 204 220 208 232 224 190 201 209 187 203 209 207 197 203 202 185 180 204 216 180 201 224 206 241 224 216 194 228 239 226 256 228 258 232 212
181 202 199 203 204 209 210 217 211 217 207 223 226 213 202 198 192 224 206 191 235 173 179 191 202 222 216 199 214 226 222 249 256 245 226 225 229 218 229 230 249 236
191 189 201 220 219 209 218 214 216 217 214 225 225 234 222 200 225 234 203 186 211 238 191 224 167 200 222 234 196 213 222 244 236 198 236 257 250 229 225 240 252 232
189 199 200 203 221 226 225 221 221 221 209 215 225 232 220 212 175 239 249 179 210 210 223 219 233 213 216 231 211 233 245 237 231 225 217 220 236 234 250 238 231 239
196 196 206 209 212 215 246 253 233 226 231 207 220 232 223 226 194 199 207 198 202 234 227 215 218 232 222 242 237 206 227 237 257 261 265 253 239 244 235 238 245 240
198 204 203 211 194 198 207 251 268 267 242 229 205 228 247 228 232 186 191 203 204 224 238 228 224 231 240 228 241 240 208 195 249 256 265 263 256 244 245 223 219 227
204 205 208 205 182 182 204 242 268 273 289 310 272 226 232 250 251 233 188 209 210 226 232 241 224 231 241 254 246 239 244 203 80 281 255 282 282 281 268 267 251 235
206 214 201 204 209 185 181 205 231 262 285 302 301 284 247 240 237 254 242 197 216 206 218 231 238 226 232 235 231 243 252 251 182 223 227 256 276 281 269 253 254 254
187 193 196 154 141 149 165 189 225 247 274 324 344 341 329 344 330 318 293 266 206 211 213 230 238 238 257 213 211 234 240 251 278 82 311 292 293 299 291 290 299 283
183 180 146 160 147 151 153 181 135 16 8 347 330 321 338 346 346 335 307 298 292 260 232 248 357 7 5 21 296 212 193 224 228 203 201 201 287 302 298 297 295 286
207 212 196 186 185 193 209 201 215 202 254 289 300 315 334 344 335 327 326 316 327 358 6 50 70 9 5 14 28 21 10 319 224 221 235 222 220 246 277 309 348 5
318 271 251 242 213 220 216 222 217 228 232 238 246 269 340 13 310 297 320 45 64 86 85 55 55 7 7 12 17 24 14 354 324 326 308 308 307 312 61 90 93 112
360 318 278 269 266 260 243 237 229 235 245 239 240 223 202 190 234 259 21 66 45 97 100 89 65 14 6 16 21 18 12 2 354 347 314 291 341 37 53 46 98 132
17 344 358 321 297 285 294 328 354 337 327 317 324 332 321 210 226 127 83 106 105 56 61 70 46 8 8 10 18 5 356 327 327 317 322 17 29 52 73 25 347 232
58 51 46 50 29 349 273 18 31 309 277 319 326 327 298 237 145 133 114 118 126 101 83 92 69 28 8 4 4 3 331 320 331 25 37 12 37 62 58 34 11 309
71 84 74 56 51 58 55 52 57 45 68 45 25 328 251 220 182 138 162 148 125 95 74 66 52 21 18 11 6 2 359 357 8 30 27 19 37 47 56 41 32 355
37 66 82 78 69 66 57 46 46 37 34 41 32 333 311 254 187 173 173 163 128 118 103 93 68 26 23 12 13 8 350 352 350 19 347 3 48 58 69 83 48 50
38 41 56 81 83 79 72 50 36 49 44 70 343 330 329 303 205 186 177 156 131 109 113 106 84 48 31 12 19 21 5 336 12 15 330 340 9 349 99 132 104 59
20 34 51 54 66 70 96 117 128 117 254 106 52 32 12 358 345 205 130 118 105 104 104 105 90 68 41 24 29 25 11 342 76 62 57 39 4 23 13 111 129 125